Weather History for Flint, MI

Change the Weather History Date:

Monday, August 27, 2012

  Actual Average Record
Temperature  
Mean Temperature 76 °F 67 °F  
Max Temperature 85 °F 78 °F 98 °F (1948)
Min Temperature 67 °F 56 °F 42 °F (1927)
Degree Days  
Heating Degree Days 0 1  
Month to date heating degree days 11 26  
Since 1 June heating degree days 59 107  
Since 1 July heating degree days 11 41  
Cooling Degree Days 11 4  
Month to date cooling degree days 138 133  
Year to date cooling degree days 762 464  
Since 1 June cooling degree days 674 432  
Growing Degree Days 27 (Base 50)    
Moisture  
Dew Point 66 °F    
Average Humidity 72    
Maximum Humidity 97    
Minimum Humidity 47    
Precipitation  
Precipitation 0.43 in 0.10 in 1.54 in (1992)
Month to date precipitation 3.16 2.74  
Year to date precipitation 21.72 20.12  
Snow  
Snow 0.00 in 0.00 in 0.00 in ()
Month to date snowfall 0.0 0.0  
Since 1 June snowfall 0.0 0.0  
Since 1 July snowfall 0.0 0.0  
Snow Depth 0.00 in    
Sea Level Pressure  
Sea Level Pressure 30.00 in    
Wind  
Wind Speed 6 mph (WSW)    
Max Wind Speed 14 mph    
Max Gust Speed 20 mph    
Visibility 7 miles    
Events Rain    
T = Trace of Precipitation, MM = Missing Value Source: NWS Daily Summary

Daily Weather History Graph

Daily Weather History Graph

Search for Another Location

Airport:

Trip Planner

Search our weather history database for the weather conditions in past years. The results will help you decide how hot, cold, wet, or windy it might be!

Date:

Astronomy

Aug. 27, 2012 Rise Set
Actual Time 6:54 AM EDT 8:17 PM EDT
Civil Twilight 6:25 AM EDT 8:46 PM EDT
Nautical Twilight 5:49 AM EDT 9:22 PM EDT
Astronomical Twilight 5:11 AM EDT 9:59 PM EDT
Moon 5:40 PM EDT (8/27) 2:32 AM EDT (8/27)
Length of Visible Light 14h 21m
Length of Day
13h 22m
Waxing Gibbous, 82% of the Moon is Illuminated
Aug 27
Waxing Gibbous
Aug 31
Full
Sep 8
Last Quarter
Sep 15
New
Sep 22
First Quarter

Hourly Weather History & Observations

Time (EDT) Temp. Heat Index Dew Point Humidity Pressure Visibility Wind Dir Wind Speed Gust Speed Precip Events Conditions
12:53 AM 72.0 °F - 68.0 °F 87% 30.03 in 6.0 mi SSW 4.6 mph - 0.01 in Rain Light Rain
1:13 AM 71.6 °F - 68.0 °F 88% 30.05 in 2.0 mi Calm Calm - 0.04 in Rain Rain
1:30 AM 71.6 °F - 66.2 °F 83% 30.05 in 1.2 mi SW 6.9 mph - 0.15 in Rain Heavy Rain
1:41 AM 71.6 °F - 68.0 °F 88% 30.04 in 3.0 mi SW 4.6 mph - 0.23 in Rain Light Rain
1:50 AM 71.6 °F - 68.0 °F 88% 30.04 in 2.0 mi SW 4.6 mph - 0.25 in Rain Heavy Rain
1:53 AM 71.1 °F - 68.0 °F 90% 30.02 in 2.0 mi SW 3.5 mph - 0.28 in Rain Heavy Rain
2:09 AM 69.8 °F - 68.0 °F 94% 30.03 in 3.0 mi SSW 5.8 mph - 0.05 in Rain Rain
2:53 AM 70.0 °F - 68.0 °F 93% 30.00 in 5.0 mi SSW 4.6 mph - 0.11 in Rain Light Rain
3:53 AM 70.0 °F - 66.9 °F 90% 29.99 in 6.0 mi SSW 3.5 mph - 0.01 in Rain Light Rain
4:30 AM 69.8 °F - 66.2 °F 88% 30.01 in 7.0 mi SW 3.5 mph - 0.00 in Rain Light Rain
4:53 AM 70.0 °F - 66.9 °F 90% 29.99 in 5.0 mi SSW 5.8 mph - 0.01 in Rain Light Rain
5:20 AM 69.8 °F - 66.2 °F 88% 30.00 in 6.0 mi SSW 6.9 mph - 0.01 in Rain Light Rain
5:53 AM 70.0 °F - 66.9 °F 90% 29.99 in 6.0 mi SSW 4.6 mph - 0.02 in   Overcast
6:19 AM 69.8 °F - 66.2 °F 88% 30.01 in 7.0 mi SW 3.5 mph - N/A   Overcast
6:53 AM 70.0 °F - 68.0 °F 93% 29.99 in 7.0 mi Calm Calm - N/A   Overcast
7:26 AM 69.8 °F - 66.2 °F 88% 30.01 in 5.0 mi Calm Calm - N/A   Overcast
7:53 AM 70.0 °F - 68.0 °F 93% 30.00 in 6.0 mi West 3.5 mph - N/A   Partly Cloudy
8:38 AM 71.6 °F - 69.8 °F 94% 30.02 in 7.0 mi WSW 4.6 mph - N/A   Scattered Clouds
8:43 AM 71.6 °F - 69.8 °F 94% 30.02 in 6.0 mi SW 3.5 mph - N/A   Mostly Cloudy
8:51 AM 71.6 °F - 69.8 °F 94% 30.02 in 6.0 mi Calm Calm - N/A   Mostly Cloudy
8:53 AM 71.1 °F - 69.1 °F 93% 30.01 in 5.0 mi Calm Calm - N/A   Mostly Cloudy
9:53 AM 73.0 °F - 69.1 °F 87% 30.01 in 7.0 mi WSW 3.5 mph - N/A   Overcast
10:22 AM 73.4 °F - 68.0 °F 83% 30.02 in 8.0 mi Calm Calm - N/A   Mostly Cloudy
10:37 AM 73.4 °F - 69.8 °F 88% 30.02 in 9.0 mi Variable 3.5 mph - N/A   Mostly Cloudy
10:53 AM 75.0 °F - 69.1 °F 82% 30.01 in 9.0 mi Calm Calm - N/A   Mostly Cloudy
11:29 AM 77.0 °F - 69.8 °F 78% 30.02 in 9.0 mi Calm Calm - N/A   Overcast
11:53 AM 75.9 °F - 68.0 °F 76% 30.00 in 10.0 mi WNW 3.5 mph - N/A   Overcast
12:53 PM 80.1 °F 82.7 °F 68.0 °F 67% 29.99 in 10.0 mi Variable 4.6 mph - N/A   Scattered Clouds
1:53 PM 82.0 °F 84.9 °F 68.0 °F 62% 29.98 in 10.0 mi NNW 8.1 mph - N/A   Mostly Cloudy
2:53 PM 84.0 °F 85.8 °F 64.9 °F 53% 29.97 in 10.0 mi North 6.9 mph - N/A   Partly Cloudy
3:53 PM 84.0 °F 85.8 °F 64.9 °F 53% 29.95 in 10.0 mi North 12.7 mph - N/A   Scattered Clouds
4:53 PM 82.9 °F 84.0 °F 63.0 °F 51% 29.95 in 10.0 mi NNW 13.8 mph - N/A   Partly Cloudy
5:53 PM 82.9 °F 83.2 °F 60.1 °F 46% 29.95 in 10.0 mi North 9.2 mph - N/A   Partly Cloudy
6:53 PM 82.0 °F 82.4 °F 60.1 °F 47% 29.95 in 10.0 mi NW 8.1 mph - N/A   Clear
7:53 PM 78.1 °F - 63.0 °F 60% 29.96 in 10.0 mi WNW 4.6 mph - N/A   Partly Cloudy
8:53 PM 75.0 °F - 62.1 °F 64% 29.97 in 10.0 mi West 3.5 mph - N/A   Mostly Cloudy
9:53 PM 73.9 °F - 62.1 °F 66% 29.99 in 10.0 mi NNW 8.1 mph - N/A   Scattered Clouds
10:53 PM 73.0 °F - 57.0 °F 57% 30.00 in 10.0 mi NNW 9.2 mph - N/A   Clear
11:53 PM 71.6 °F - 55.4 °F 57% 30.03 in 10.0 mi NNW 9.2 mph - N/A   Clear